Other Surface Observations
Issued by NWS

Home | Current Version | Previous Version | Text Only | Print | Product List | Glossary On
Versions: 1 2 3 4 5 6 7 8 9 10 11 12 13 14 15 16 17 18 19 20 21 22 23 24 25 26 27 28 29 30 31 32 33 34 35 36 37 38 39 40 41 42 43 44 45 46 47 48 49 50
859
SXUS52 KTAE 062306
OSOTAE
OSOTAE
North Florida/South Alabama/Southwest Georgia Weather Roundup
National Weather Service Tallahassee Florida
700 PM EDT FRI MAY 06 2016

Note: "fair" indicates few or no clouds below 12,000 feet with no
significant weather and/or obstructions to visibility.

!FLZ017-115-028-034-025-070000
...North Florida...

CITY           SKY/WX    TMP DP  RH WIND       PRES   REMARKS
TALLAHASSEE    MOSUNNY   76  40  27 N14       29.89R
APALACHICOLA   LGT RAIN  72  54  53 W17       29.90R
PERRY          SUNNY     73  42  33 W8        29.89R
CROSS CITY       N/A     72  50  45 W13       29.88R
JACKSONVILLE   MOSUNNY   72  44  36 NW6       29.84R
$$

!FLZ112-006-005-002-011-070000
...Florida Panhandle...

CITY           SKY/WX    TMP DP  RH WIND       PRES   REMARKS
MARIANNA       SUNNY     75  44  33 N13       29.90R
BONIFAY        FAIR      73  43  33 N9G16     29.92R
PANAMA CITY NW FAIR      74  43  32 NW12      29.91R
TYNDALL AFB    SUNNY     71  56  57 W16       29.90S
TYND DRONE APT FAIR      70  57  64 W10G20    29.91R
DE FUNIAK SPR  FAIR      73  44  36 N10       29.93S
EGLIN AFB      MOSUNNY   76  43  30 N10       29.92S
DESTIN         SUNNY     77  48  35 N12       29.92S
HURLBURT       SUNNY     75  42  30 N13G20    29.91S
CRESTVIEW      SUNNY     75  43  31 N13G18    29.95R
PENSACOLA      SUNNY     76  43  30 N10       29.94S
$$

!ALZ063-066-070000
...South Alabama...

CITY           SKY/WX    TMP DP  RH WIND       PRES   REMARKS
DOTHAN         MOSUNNY   74  41  30 NW18      29.95R
OZARK CAIRNS   MOSUNNY   73  44  35 NW10      29.92R
FT RUCKER HELI MOSUNNY   73  42  32 N13       29.91
RUCKER HELI 3  FAIR      72  42  33 N10G28    29.94R
RUCKER HELI 2  NOT AVBL
FLORALA APT    SUNNY     72  43  35 N8        29.95R
ANDALUSIA      SUNNY     76  43  30 NW13G20   29.94R
TROY           SUNNY     73  43  33 N17       29.94S
EUFALA         FAIR      73  44  35 VRB5      29.90S
MOBILE         SUNNY     74  47  38 NW10      29.97F
$$

!GAZ120>161-070000
...Southwest and South Central Georgia...

CITY           SKY/WX    TMP DP  RH WIND       PRES   REMARKS
THOMASVILLE    FAIR      72  41  33 N10G17    29.89R
BAINBRIDGE     SUNNY     72  43  35 N13G21    29.90S
MOODY AFB      PTSUNNY   72  43  35 N9        29.86R
VALDOSTA       MOSUNNY   72  42  34 N13       29.87S
MOULTRIE       MOSUNNY   72  41  33 NW10G17   29.89R
BLAKELY        MOSUNNY   73  46  38 NW13      29.91S
ALBANY         MOSUNNY   73  42  32 NW9       29.91R
TIFTON         PTSUNNY   71  42  36 N12       29.88R
FITZGERALD     MOCLDY    71  42  34 N8        29.90S
CORDELE        CLOUDY    74  41  31 N10       29.90R
AMERICUS       MOCLDY    70  36  28 N8        29.91S
HOMERVILLE     FAIR      72  46  40 NW13      29.87S
$$

!GMZ750-755-770-775-070000
...Coastal and Buoy Obs...

STATION/POSITION TIME  TEMP    WIND        PRES    VSBY  WAVE
                       AIR SEA DIR/SP/G                  HT/PER
                 (UTC) (F)     (DEG/KT/KT) (MB)    (MI)  (FT/S)
KEATON BEACH     2300   71     320/  7/ 11 1011.6R
CEDAR KEY        2200   69     300/  9/ 13 1012.1F
C TOWER          2300   67     300/ 21/ 24 1013.3R
APALACHICOLA BUO 2250   68 73  300/ 14/ 16 1012.9R         3/ 6
PANAMA CITY BUOY 2250   69 77  330/ 14/ 17 1014.3F         3/ 6
MOBILE BUOY      2200   67 74  330/ 12/ 16 1015.6F
ORANGE BCH AL BU 2250   70 74  280/ 19/ 21 1013.4F         3/ 4
$$




USA.gov is the U.S. government's official web portal to all federal, state and local government web resources and services.